User: anonymous   Login
Location: Caltech
(34.1382°N, 118.1253°W)
Time: 12:59:38
(UTC-07:00)
Language:

Cosmos 44 Rocket - Orbit

View from above orbital plane
View from above orbital plane
View from above satellite
View from above satellite

Ground track
Ground track

The orbit data is extracted from the following two-line orbital elements,

1 00877U 64053B   14304.12436716  .00000248  00000-0  76765-4 0  7719
2 00877 065.0794 217.0040 0054088 138.5941 221.9277 14.58929275661437
Epoch (UTC): 31 October 2014 02:59:05
Eccentricity: 0.0054088
inclination: 65.0794°
perigee height: 658 km
apogee height: 735 km
right ascension of ascending node: 217.0040°
argument of perigee: 138.5941°
revolutions per day: 14.58929275
mean anomaly at epoch: 221.9277°
orbit number at epoch: 66143

The dashed part of the orbit path shows where the satellite is in the earth's shadow,  

DLR